Regional Weather Roundup
Issued by NWS Wilmington, NC

Home | Current Version | Previous Version | Text Only | Print | Product List | Glossary On
Versions: 1 2 3 4 5 6 7 8 9 10 11 12 13 14 15 16 17 18 19 20 21 22 23 24 25 26 27 28
000
ASUS42 KILM 281513
RWRILM
RWRILM
REGIONAL HOURLY WEATHER ROUNDUP
NATIONAL WEATHER SERVICE WILMINGTON NC
1000 AM EST TUE FEB 28 2017

NOTE: "FAIR" INDICATES FEW OR NO CLOUDS BELOW 12,000 FEET WITH NO
SIGNIFICANT WEATHER AND/OR OBSTRUCTIONS TO VISIBILITY.

...............WFO WILMINGTON COUNTY WARNING AREA...............

......COASTAL NC AND SC COUNTIES......

CITY           SKY/WX    TMP DP  RH WIND       PRES   REMARKS
WILMINGTON     CLOUDY    68  62  81 E8        30.33S
N MYRTLE BEACH SUNNY     71  65  81 SW7       30.30S
MYRTLE BEACH   MOSUNNY   73  64  73 MISG      30.30F

......INLAND NC AND SC COUNTIES.......

CITY           SKY/WX    TMP DP  RH WIND       PRES   REMARKS
LUMBERTON      MOSUNNY   68  60  75 CALM      30.30F
ELIZABETHTOWN  SUNNY     66  62  86 SE3       30.31S
WHITEVILLE     SUNNY     70  62  75 S7        30.30S
FLORENCE       PTSUNNY   67  59  75 CALM      30.31S
DARLINGTON     CLOUDY    65  58  78 SE6       30.31F
KINGSTREE      PTSUNNY   70  59  68 CALM      30.30S
HARTSVILLE     FAIR      66  55  68 CALM      30.30S
BENNETTSVILLE  NOT AVBL
CONWAY         FAIR      72  63  73 SW6       30.30S HAZE
GEORGETOWN     FAIR      73  63  68 SW9       30.29F
MARION         PTSUNNY   66  59  77 CALM      30.31S

....................REST OF NORTH CAROLINA......................

.........EASTERN NC.........

CITY           SKY/WX    TMP DP  RH WIND       PRES   REMARKS
CAPE HATTERAS  CLOUDY    72  62  71 S13       30.34S HAZE
JACKSONVILLE   MOSUNNY   68  63  84 SE8       30.33S
MOREHEAD CITY  MOSUNNY   71  63  75 S12       30.34R
KENANSVILLE    CLOUDY    66  59  77 S5        30.32S
NEW BERN       PTSUNNY   72  61  68 S13G20    30.33F
ELIZABETH CITY SUNNY     69  56  62 SW14      30.33S

.........CENTRAL NC.........

CITY           SKY/WX    TMP DP  RH WIND       PRES   REMARKS
RALEIGH DURHAM MOSUNNY   67  55  65 SW8       30.31F
ROCKY MOUNT    PTSUNNY   65  58  78 S6        30.32S
ROANOKE RAPIDS NOT AVBL
FAYETTEVILLE   SUNNY    N/A N/A N/A CALM      30.31R
HOFFMAN        SUNNY     67  58  71 S5        30.30F

.........WESTERN NC.........

CITY           SKY/WX    TMP DP  RH WIND       PRES   REMARKS
CHARLOTTE      MOSUNNY   62  47  57 VRB3      30.30F
GREENSBORO     PTSUNNY   60  49  66 S7        30.27F
HICKORY        NOT AVBL
BOONE          NOT AVBL
ASHEVILLE      NOT AVBL

.....................REST OF SOUTH CAROLINA.....................

.........EASTERN SC.........

CITY           SKY/WX    TMP DP  RH WIND       PRES   REMARKS
CHARLESTON     PTSUNNY   74  63  68 SW10      30.29F
BEAUFORT MCAS  CLOUDY    69  67  93 SE5       30.30S
HILTON HEAD    CLOUDY    70  66  88 S9        30.30S

.........CENTRAL SC.........

CITY           SKY/WX    TMP DP  RH WIND       PRES   REMARKS
COLUMBIA       MOSUNNY   69  57  65 CALM      30.28F
ORANGEBURG     PTSUNNY   71  63  75 S8        30.30S
SUMTER SHAW    SUNNY     69  58  68 S5        30.28S

.........WESTERN SC.........

CITY           SKY/WX    TMP DP  RH WIND       PRES   REMARKS
GREENVILLE     NOT AVBL
ROCK HILL      SUNNY     63  52  67 S6        30.30F
ANDERSON       CLOUDY    60  39  45 CALM      30.30F
CLEMSON        NOT AVBL
GREENWOOD      MOSUNNY   61  47  59 CALM      30.31F


...................COASTAL AND OFFSHORE REPORTS..................

................LOCAL PIERS AND NC RESERVE................


STATION/POSITION TIME  SKY/WX   TEMP    WIND        PRES    VSBY
                                AIR SEA DIR/SP/G
                 (UTC)          (F)     (DEG/KT/KT) (MB)    (MI)
JOHNY MRCER PIER 1448            61 60   80/  5/  6 1025.8S
NC RESRV MASNBRO 1345            61      60/  2     1026.0
OCEAN CREST PIER NOT AVBL
SPRINGMAID  PIER 1448                               1025.3F


................COASTAL AND OFFSHORE BUOYS................


STATION/POSITION TIME  SKY/WX   TEMP    WIND        PRES    VSBY
                                AIR SEA DIR/SP/G
                 (UTC)          (F)     (DEG/KT/KT) (MB)    (MI)
DIMNDSHOAL 41025 1450            71 72  190/ 17/ 21 1027.1F
WVE H/P(F/S)=  4/ 5 SWL H/P/D(F/S/D)=  2/100/ 8

CAPE LOOKOUT     1500            66     180/ 11/ 13 1027.3R
ONSLOW BAY 41036 NOT AVBL
ONSLOW BAY 41064 1408            64     160/  6/ 10 1027.3R
ONSLOW BAY 41159 1443               65                N/A
WVE H/P(F/S)=  5/ 6

MASNBO INL 41110 1459               59                N/A
WVE H/P(F/S)=  4/ 6

WILM HARBR 41108 1447               60                N/A
WVE H/P(F/S)=  4/ 6

27SE WRITB 41037 1408            65 63  110/  8/ 14 1026.5R
FRYING PAN 41013 1500            69 70   30/  6/ 10 1027.2
SUNST NRSH 41024 1408            64 60  180/  2/  6 1026.2F
CAPRS NRSH 41029 1408            65 61  260/  4/  6 1026.0R
EDISTO     41004 1450            70 68  210/ 10/ 12 1025.7R
WVE H/P(F/S)=  6/ 7 SWL H/P/D(F/S/D)=  5/140/ 7



..........OFFSHORE BUOYS BEYOND 100 NM OFFSHORE...........
.....IN A TRIANGLE---HAT TO BERMUDA TO BAHAMAS TO HAT.....


STATION/POSITION TIME  SKY/WX   TEMP    WIND        PRES    VSBY
                                AIR SEA DIR/SP/G
                 (UTC)          (F)     (DEG/KT/KT) (MB)    (MI)
150E HAT   41001 NOT AVBL
W BERMUDA  41048 1450            68 69  100/ 14/ 16 1031.2R
WVE H/P(F/S)=  4/ 8 SWL H/P/D(F/S/D)=  3/ 50/ 8

ATLANTIC S 41049 1450            71 73   60/ 19/ 21 1028.2S
WVE H/P(F/S)=  5/ 5 SWL H/P/D(F/S/D)=  2/ 10/ 9

E BAHAMAS  41046 1500            78 77   90/ 16/ 19 1022.6
NE BAHAMAS 41047 1500            73 73   70/ 14/ 17 1027.5
120E CANVRL41010 NOT AVBL

END




USA.gov is the U.S. government's official web portal to all federal, state and local government web resources and services.